Regional Weather Roundup
Issued by NWS

Home | Current Version | Previous Version | Graphics & Text | Print | Product List | Glossary On
Versions: 1 2 3 4 5 6 7 8 9 10 11 12 13 14 15 16 17 18 19 20 21 22 23 24 25 26 27 28 29 30 31 32 33 34 35 36 37 38 39 40 41 42 43 44 45 46 47 48 49 50
000
ASUS43 KIND 051759
RWRIN

WEATHER ROUNDUP FOR INDIANA
NATIONAL WEATHER SERVICE INDIANAPOLIS IN
100 PM EST MON DEC 05 2016

NOTE: "FAIR" INDICATES FEW OR NO CLOUDS BELOW 12,000 FEET WITH NO
SIGNIFICANT WEATHER AND/OR OBSTRUCTIONS TO VISIBILITY.

* - STATION DOES NOT REPORT WEATHER SUCH AS PRECIPITATION OR FOG.

+ - STATION NOT QUALITY CONTROLLED BY THE NATIONAL WEATHER SERVICE.
    USE DATA WITH CAUTION...ESPECIALLY DEWPOINT AND RELATIVE
    HUMIDITY OBSERVATIONS.

INZ001>003-010>013-019-020-051900-
NORTHWEST INDIANA

CITY           SKY/WX    TMP DP  RH WIND       PRES   REMARKS
GARY /AIRPORT/ CLOUDY    34  32  93 S12       30.07  WCI  25

$$

LMZ046-743>745-051900-
SOUTHERN LAKE MICHIGAN

STATION/POSITION TIME  TEMP    WIND        PRES    WAVE
                       AIR SEA DIR/SP/G            HT
                 (UTC) (F)     (DEG/KT/KT) (MB)    (FT)
BURNS HARBOR     1740   33     190/ 12/ 15 1018.6S

$$

INZ004-005-014>016-021>024-051900-
NORTH CENTRAL INDIANA

CITY           SKY/WX    TMP DP  RH WIND       PRES   REMARKS
GOSHEN         CLOUDY    34  28  79 S13       30.08S WCI  25
6HR MIN TEMP:  33; 6HR MAX TEMP:  34;

SOUTH BEND     CLOUDY    32  29  88 S12       30.08S WCI  23
6HR MIN TEMP:  31; 6HR MAX TEMP:  32;


$$

INZ006>009-017-018-025>027-051900-
NORTHEAST INDIANA

CITY           SKY/WX    TMP DP  RH WIND       PRES   REMARKS
ANGOLA *+      CLOUDY    34  23  64 SW6       30.06S WCI  29
FORT WAYNE     CLOUDY    34  29  82 SW9       30.11R WCI  27
6HR MIN TEMP:  32; 6HR MAX TEMP:  34;

KENDALLVILLE + CLOUDY    33  30  87 SW10      30.09R WCI  25

$$

INZ028-029-035-036-043>045-051>053-051900-
WEST CENTRAL INDIANA

CITY           SKY/WX    TMP DP  RH WIND       PRES   REMARKS
CRAWFORDSVL +  CLOUDY    36  33  89 SE5       30.05F
6HR MIN TEMP:  32; 6HR MAX TEMP:  36;

GREENCASTLE +  MOSUNNY   37  34  87 SE7       30.06F
LAFAYETTE      CLOUDY    35  32  88 S7        30.06F WCI  29
6HR MIN TEMP:  32; 6HR MAX TEMP:  36;

TERRE HAUTE    CLOUDY    39  32  76 SE9       30.05F
6HR MIN TEMP:  35; 6HR MAX TEMP:  39;


$$

INZ030>032-037>040-046>048-054>057-064-065-051900-
CENTRAL INDIANA

CITY           SKY/WX    TMP DP  RH WIND       PRES   REMARKS
ANDERSON       PTSUNNY   39  32  75 S7        30.08F
COLUMBUS       MOSUNNY   39  34  81 E5        30.09F
GREENWOOD *+   PTSUNNY   39  33  77 SE5       30.07F
6HR MIN TEMP:  35; 6HR MAX TEMP:  39;

INDIANAPOLIS   PTSUNNY   39  32  76 SE3       30.06F
6HR MIN TEMP:  34; 6HR MAX TEMP:  40;

-EAGLE CREEK   CLOUDY    40  31  70 E7        30.06F
6HR MIN TEMP:  35; 6HR MAX TEMP:  40;

KOKOMO +       CLOUDY    37  32  82 S10       30.08F
6HR MIN TEMP:  32; 6HR MAX TEMP:  37;

SHELBYVILLE    CLOUDY    40  31  70 CALM      30.07F
6HR MIN TEMP:  35; 6HR MAX TEMP:  40;


$$

INZ033-034-041-042-049-050-058-059-051900-
EAST CENTRAL INDIANA

CITY           SKY/WX    TMP DP  RH WIND       PRES   REMARKS
MUNCIE         CLOUDY    38  31  76 SW6       30.08F
6HR MIN TEMP:  34; 6HR MAX TEMP:  39;


$$

INZ060-061-067>069-081>083-085>088-051900-
SOUTHWEST INDIANA

CITY           SKY/WX    TMP DP  RH WIND       PRES   REMARKS
EVANSVILLE     PTSUNNY   41  33  73 SE6       30.07F
6HR MIN TEMP:  38; 6HR MAX TEMP:  41;

HUNTINGBURG *+ PTSUNNY   41  34  75 E9        30.06F
6HR MIN TEMP:  36; 6HR MAX TEMP:  41;


$$

INZ062-063-066-070>080-084-089>092-051900-
SOUTH CENTRAL AND SOUTHEAST INDIANA

CITY           SKY/WX    TMP DP  RH WIND       PRES   REMARKS
BLOOMINGTON    MOSUNNY   41  32  70 SE8       30.06F
6HR MIN TEMP:  35; 6HR MAX TEMP:  41;

MADISON *+     MOSUNNY   43  32  65 E3        30.10S
SEYMOUR +      MOSUNNY   45  34  65 CALM      30.09F

$$





USA.gov is the U.S. government's official web portal to all federal, state and local government web resources and services.